SVR4220 UACC-USSS

Flight info

Callsign SVR4220
Flight time 1h 35m
Altitude 36000
Route K0822F360 KOLUR6G KOLUR N170 LULEK W333 KTU N170 NEKER NEKER6R
Aircraft A320/M-SDE3FGHIRWY/LB1

Departure

Time 2026-04-20 13:21
Airport Nursultan Nazarbayev International Airport (UACC)

Arrival

Time 2026-04-20 14:56
Airport Koltsovo Airport (USSS)
Time Latitude Longitude Altitude Speed Heading
2026-04-20 12:58 51.02191 71.45587 1161 ft 0 kts 225°
2026-04-20 13:14 51.02176 71.45564 1163 ft 3 kts 225°
2026-04-20 13:14 51.02154 71.45529 1164 ft 5 kts 225°
2026-04-20 13:14 51.02127 71.45487 1164 ft 6 kts 223°
2026-04-20 13:14 51.02085 71.45496 1164 ft 9 kts 141°
2026-04-20 13:15 51.02041 71.45572 1164 ft 9 kts 132°
2026-04-20 13:15 51.01999 71.45644 1164 ft 9 kts 132°
2026-04-20 13:15 51.01987 71.45735 1164 ft 8 kts 65°
2026-04-20 13:15 51.02031 71.45809 1164 ft 13 kts 44°
2026-04-20 13:16 51.02114 71.45937 1164 ft 19 kts 45°
2026-04-20 13:16 51.02212 71.46089 1164 ft 20 kts 44°
2026-04-20 13:16 51.02318 71.46253 1164 ft 22 kts 44°
2026-04-20 13:16 51.02429 71.46426 1164 ft 23 kts 45°
2026-04-20 13:17 51.02546 71.46609 1164 ft 24 kts 44°
2026-04-20 13:17 51.02669 71.46800 1164 ft 25 kts 44°
2026-04-20 13:17 51.02798 71.47003 1164 ft 27 kts 45°
2026-04-20 13:17 51.02932 71.47212 1164 ft 28 kts 44°
2026-04-20 13:18 51.03071 71.47429 1164 ft 28 kts 44°
2026-04-20 13:18 51.03214 71.47654 1164 ft 29 kts 44°
2026-04-20 13:18 51.03346 71.47857 1164 ft 23 kts 44°
2026-04-20 13:18 51.03428 71.48021 1164 ft 18 kts 78°
2026-04-20 13:19 51.03430 71.48184 1164 ft 15 kts 90°
2026-04-20 13:19 51.03396 71.48329 1165 ft 13 kts 137°
2026-04-20 13:19 51.03352 71.48333 1165 ft 5 kts 211°
2026-04-20 13:19 51.03338 71.48311 1165 ft 0 kts 226°
2026-04-20 13:20 51.03216 71.48117 1165 ft 62 kts 224°
2026-04-20 13:20 51.02749 71.47391 1164 ft 124 kts 224°
2026-04-20 13:20 51.01999 71.46241 1170 ft 172 kts 221°
2026-04-20 13:21 51.01134 71.44932 1789 ft 170 kts 224°
2026-04-20 13:21 51.00570 71.44033 2296 ft 170 kts 224°
2026-04-20 13:21 50.99722 71.42664 2827 ft 182 kts 224°
2026-04-20 13:21 50.98778 71.41156 3110 ft 205 kts 224°
2026-04-20 13:22 50.97722 71.39480 3561 ft 221 kts 224°
2026-04-20 13:22 50.96621 71.37729 4320 ft 228 kts 225°
2026-04-20 13:22 50.95688 71.35632 5000 ft 239 kts 244°
2026-04-20 13:22 50.95257 71.33074 5824 ft 244 kts 264°
2026-04-20 13:23 50.95423 71.30388 6715 ft 248 kts 285°
2026-04-20 13:23 50.96198 71.27933 7569 ft 254 kts 305°
2026-04-20 13:23 50.97521 71.26042 8407 ft 262 kts 327°
2026-04-20 13:23 50.99269 71.25008 8957 ft 282 kts 350°
2026-04-20 13:24 51.01285 71.25124 9585 ft 296 kts
2026-04-20 13:24 51.03349 71.25495 10266 ft 305 kts
2026-04-20 13:24 51.05526 71.25242 10505 ft 325 kts 349°
2026-04-20 13:24 51.07829 71.24716 10828 ft 342 kts 349°
2026-04-20 13:25 51.10245 71.24160 11481 ft 348 kts 349°
2026-04-20 13:25 51.12653 71.23608 12200 ft 353 kts 350°
2026-04-20 13:25 51.15125 71.23337 12926 ft 357 kts 351°
2026-04-20 13:25 51.17517 71.22367 13620 ft 356 kts 335°
2026-04-20 13:26 51.19825 71.20880 14284 ft 360 kts 335°
2026-04-20 13:26 51.22015 71.19453 14880 ft 363 kts 335°
2026-04-20 13:26 51.24356 71.17912 15538 ft 366 kts 334°
2026-04-20 13:26 51.26724 71.16347 16168 ft 369 kts 334°
2026-04-20 13:27 51.29103 71.14775 16780 ft 372 kts 334°
2026-04-20 13:27 51.31507 71.13184 17385 ft 376 kts 334°
2026-04-20 13:27 51.33939 71.11576 18007 ft 380 kts 334°
2026-04-20 13:27 51.36390 71.09959 18563 ft 383 kts 334°
2026-04-20 13:28 51.38854 71.08334 19092 ft 386 kts 334°
2026-04-20 13:28 51.41356 71.06682 19637 ft 389 kts 334°
2026-04-20 13:28 51.43860 71.05025 20172 ft 392 kts 334°
2026-04-20 13:28 51.46394 71.03347 20744 ft 395 kts 334°
2026-04-20 13:29 51.48937 71.01659 21271 ft 398 kts 333°
2026-04-20 13:29 51.51499 70.99954 21799 ft 401 kts 333°
2026-04-20 13:29 51.54086 70.98226 22322 ft 403 kts 333°
2026-04-20 13:29 51.56721 70.96462 22841 ft 406 kts 333°
2026-04-20 13:30 51.59305 70.94732 23344 ft 409 kts 333°
2026-04-20 13:30 51.61976 70.92944 23788 ft 412 kts 333°
2026-04-20 13:30 51.64629 70.91168 24181 ft 414 kts 333°
2026-04-20 13:30 51.67299 70.89381 24575 ft 416 kts 333°
2026-04-20 13:31 51.69984 70.87581 25016 ft 418 kts 333°
2026-04-20 13:31 51.72663 70.85789 25403 ft 419 kts 333°
2026-04-20 13:31 51.75367 70.83980 25793 ft 421 kts 333°
2026-04-20 13:31 51.78076 70.82164 26162 ft 422 kts 333°
2026-04-20 13:32 51.80801 70.80324 26532 ft 424 kts 333°
2026-04-20 13:32 51.83523 70.78480 26891 ft 426 kts 333°
2026-04-20 13:32 51.86266 70.76621 27249 ft 428 kts 333°
2026-04-20 13:32 51.89020 70.74757 27599 ft 430 kts 333°
2026-04-20 13:33 51.91784 70.72886 27961 ft 431 kts 333°
2026-04-20 13:33 51.94553 70.71005 28291 ft 433 kts 332°
2026-04-20 13:33 51.97335 70.69110 28617 ft 435 kts 332°
2026-04-20 13:33 52.00119 70.67163 28935 ft 436 kts 331°
2026-04-20 13:34 52.02875 70.65092 29238 ft 437 kts 329°
2026-04-20 13:34 52.05610 70.62932 29531 ft 438 kts 329°
2026-04-20 13:34 52.08336 70.60724 29821 ft 439 kts 328°
2026-04-20 13:34 52.11078 70.58495 30097 ft 441 kts 329°
2026-04-20 13:35 52.13863 70.56249 30355 ft 442 kts 329°
2026-04-20 13:35 52.16630 70.54042 30589 ft 444 kts 329°
2026-04-20 13:35 52.19410 70.51843 30806 ft 445 kts 329°
2026-04-20 13:35 52.22204 70.49644 31062 ft 444 kts 329°
2026-04-20 13:36 52.24980 70.47457 31374 ft 443 kts 329°
2026-04-20 13:36 52.27752 70.45269 31673 ft 442 kts 328°
2026-04-20 13:36 52.30520 70.43079 31978 ft 441 kts 328°
2026-04-20 13:36 52.33275 70.40891 32281 ft 440 kts 328°
2026-04-20 13:37 52.36031 70.38693 32574 ft 439 kts 328°
2026-04-20 13:37 52.38777 70.36499 32866 ft 439 kts 328°
2026-04-20 13:37 52.41510 70.34315 33167 ft 438 kts 328°
2026-04-20 13:37 52.44248 70.32124 33467 ft 437 kts 328°
2026-04-20 13:38 52.46975 70.29942 33763 ft 436 kts 328°
2026-04-20 13:38 52.49702 70.27756 34040 ft 436 kts 328°
2026-04-20 13:38 52.52423 70.25573 34298 ft 435 kts 328°
2026-04-20 13:38 52.55137 70.23394 34560 ft 434 kts 328°
2026-04-20 13:39 52.57847 70.21211 34831 ft 433 kts 328°
2026-04-20 13:39 52.60546 70.19033 35073 ft 432 kts 327°
2026-04-20 13:39 52.63242 70.16854 35314 ft 431 kts 327°
2026-04-20 13:39 52.65964 70.14648 35561 ft 430 kts 327°
2026-04-20 13:40 52.68648 70.12469 35781 ft 429 kts 327°
2026-04-20 13:40 52.71344 70.10338 35978 ft 430 kts 328°
2026-04-20 13:40 52.74053 70.08278 36030 ft 430 kts 329°
2026-04-20 13:41 52.79509 70.04247 36029 ft 429 kts 329°
2026-04-20 13:41 52.84938 70.00211 36028 ft 426 kts 329°
2026-04-20 13:42 52.90325 69.96122 36026 ft 426 kts 328°
2026-04-20 13:42 52.98393 69.89962 36024 ft 426 kts 328°
2026-04-20 13:43 53.03780 69.85836 36050 ft 426 kts 328°
2026-04-20 13:43 53.09163 69.81712 36039 ft 426 kts 328°
2026-04-20 13:44 53.14538 69.77589 36026 ft 426 kts 328°
2026-04-20 13:44 53.19954 69.73417 36019 ft 426 kts 328°
2026-04-20 13:45 53.25330 69.69263 36012 ft 426 kts 328°
2026-04-20 13:45 53.30696 69.65097 36028 ft 426 kts 328°
2026-04-20 13:46 53.35651 69.59998 36020 ft 413 kts 313°
2026-04-20 13:46 53.39536 69.53074 36001 ft 406 kts 305°
2026-04-20 13:47 53.43233 69.45889 35990 ft 407 kts 305°
2026-04-20 13:47 53.46933 69.38706 35991 ft 408 kts 305°
2026-04-20 13:48 53.50648 69.31470 36000 ft 409 kts 305°
2026-04-20 13:48 53.54356 69.24213 35996 ft 410 kts 304°
2026-04-20 13:49 53.58065 69.16924 35990 ft 410 kts 304°
2026-04-20 13:49 53.61806 69.09570 35990 ft 410 kts 304°
2026-04-20 13:50 53.65512 69.02254 35987 ft 411 kts 304°
2026-04-20 13:50 53.69220 68.94911 36019 ft 411 kts 304°
2026-04-20 13:51 53.72297 68.88810 36013 ft 410 kts 304°
2026-04-20 13:51 53.75986 68.81466 36009 ft 410 kts 304°
2026-04-20 13:52 53.79668 68.74103 36006 ft 410 kts 304°
2026-04-20 13:52 53.83396 68.66716 36004 ft 411 kts 305°
2026-04-20 13:53 53.87241 68.59541 36025 ft 411 kts 307°
2026-04-20 13:53 53.91113 68.52415 36010 ft 411 kts 306°
2026-04-20 13:54 53.94957 68.45215 35991 ft 412 kts 306°
2026-04-20 13:54 53.98782 68.37969 35984 ft 412 kts 306°
2026-04-20 13:55 54.02599 68.30686 35983 ft 413 kts 306°
2026-04-20 13:55 54.06424 68.23404 36009 ft 413 kts 306°
2026-04-20 13:56 54.10252 68.16120 36005 ft 413 kts 306°
2026-04-20 13:56 54.14081 68.08797 35991 ft 413 kts 306°
2026-04-20 13:57 54.17887 68.01481 35982 ft 413 kts 306°
2026-04-20 13:57 54.21701 67.94149 35982 ft 413 kts 306°
2026-04-20 13:58 54.25512 67.86795 35982 ft 413 kts 306°
2026-04-20 13:58 54.29331 67.79394 36003 ft 412 kts 306°
2026-04-20 13:59 54.33125 67.72018 35994 ft 412 kts 305°
2026-04-20 13:59 54.36905 67.64640 35990 ft 412 kts 305°
2026-04-20 14:00 54.40690 67.57251 35988 ft 412 kts 305°
2026-04-20 14:00 54.44463 67.49869 35981 ft 411 kts 305°
2026-04-20 14:01 54.48227 67.42471 35979 ft 411 kts 305°
2026-04-20 14:01 54.51992 67.35049 35979 ft 411 kts 305°
2026-04-20 14:02 54.55749 67.27631 35974 ft 411 kts 305°
2026-04-20 14:02 54.59507 67.20193 35971 ft 411 kts 305°
2026-04-20 14:03 54.63275 67.12689 35970 ft 411 kts 305°
2026-04-20 14:03 54.67014 67.05217 35986 ft 411 kts 305°
2026-04-20 14:04 54.70758 66.97742 35978 ft 411 kts 304°
2026-04-20 14:04 54.74493 66.90235 35971 ft 411 kts 304°
2026-04-20 14:05 54.78059 66.82553 35966 ft 405 kts 296°
2026-04-20 14:05 54.80936 66.74190 35958 ft 404 kts 295°
2026-04-20 14:06 54.83813 66.65805 35952 ft 404 kts 295°
2026-04-20 14:06 54.86685 66.57416 35977 ft 404 kts 295°
2026-04-20 14:07 54.89546 66.49015 35960 ft 404 kts 295°
2026-04-20 14:07 54.92405 66.40596 35953 ft 405 kts 295°
2026-04-20 14:08 54.95285 66.32104 35950 ft 405 kts 295°
2026-04-20 14:08 54.98134 66.23660 35949 ft 405 kts 295°
2026-04-20 14:09 55.00976 66.15190 35942 ft 405 kts 295°
2026-04-20 14:09 55.03818 66.06713 35970 ft 405 kts 294°
2026-04-20 14:10 55.06645 65.98231 35964 ft 404 kts 294°
2026-04-20 14:10 55.09454 65.89742 35953 ft 404 kts 294°
2026-04-20 14:11 55.12274 65.81236 35942 ft 404 kts 294°
2026-04-20 14:11 55.15085 65.72733 35941 ft 404 kts 294°
2026-04-20 14:12 55.17889 65.64225 35927 ft 404 kts 294°
2026-04-20 14:12 55.20694 65.55685 35952 ft 405 kts 294°
2026-04-20 14:13 55.23510 65.47089 35946 ft 405 kts 294°
2026-04-20 14:13 55.26302 65.38526 35942 ft 405 kts 294°
2026-04-20 14:14 55.29091 65.29935 35938 ft 404 kts 294°
2026-04-20 14:14 55.31865 65.21351 35935 ft 404 kts 294°
2026-04-20 14:15 55.34636 65.12762 35930 ft 404 kts 294°
2026-04-20 14:15 55.37401 65.04155 35957 ft 404 kts 294°
2026-04-20 14:16 55.40161 64.95543 35949 ft 404 kts 294°
2026-04-20 14:16 55.42914 64.86902 35939 ft 404 kts 294°
2026-04-20 14:17 55.45651 64.78267 35933 ft 404 kts 294°
2026-04-20 14:17 55.48393 64.69626 35927 ft 404 kts 294°
2026-04-20 14:18 55.51143 64.60900 35922 ft 404 kts 294°
2026-04-20 14:18 55.53867 64.52222 35937 ft 404 kts 294°
2026-04-20 14:19 55.56588 64.43519 35929 ft 405 kts 294°
2026-04-20 14:19 55.59302 64.34805 35920 ft 405 kts 294°
2026-04-20 14:20 55.62014 64.26071 35917 ft 405 kts 294°
2026-04-20 14:20 55.64726 64.17333 35914 ft 405 kts 294°
2026-04-20 14:21 55.67434 64.08572 35921 ft 406 kts 294°
2026-04-20 14:21 55.70133 63.99787 35938 ft 406 kts 294°
2026-04-20 14:22 55.72391 63.92416 35928 ft 406 kts 294°
2026-04-20 14:22 55.75077 63.83607 35915 ft 406 kts 293°
2026-04-20 14:23 55.77543 63.74624 35909 ft 402 kts 285°
2026-04-20 14:23 55.79447 63.65278 35899 ft 403 kts 285°
2026-04-20 14:24 55.81338 63.55904 35909 ft 403 kts 285°
2026-04-20 14:24 55.83233 63.46523 35906 ft 403 kts 285°
2026-04-20 14:25 55.85128 63.37126 35921 ft 403 kts 285°
2026-04-20 14:25 55.87011 63.27709 35903 ft 404 kts 285°
2026-04-20 14:26 55.88890 63.18209 35902 ft 404 kts 285°
2026-04-20 14:26 55.90759 63.08752 35903 ft 405 kts 285°
2026-04-20 14:27 55.92648 62.99289 35905 ft 405 kts 285°
2026-04-20 14:27 55.94524 62.89820 35903 ft 405 kts 285°
2026-04-20 14:28 55.96388 62.80339 35902 ft 405 kts 285°
2026-04-20 14:28 55.98254 62.70830 35644 ft 406 kts 285°
2026-04-20 14:29 55.99185 62.66077 35397 ft 406 kts 285°
2026-04-20 14:29 56.00117 62.61305 35053 ft 407 kts 285°
2026-04-20 14:29 56.01050 62.56509 34268 ft 409 kts 285°
2026-04-20 14:29 56.01980 62.51700 33392 ft 411 kts 284°
2026-04-20 14:30 56.02914 62.46858 32499 ft 413 kts 284°
2026-04-20 14:30 56.03841 62.42042 32045 ft 405 kts 284°
2026-04-20 14:30 56.04749 62.37317 31488 ft 400 kts 284°
2026-04-20 14:30 56.05647 62.32637 30950 ft 396 kts 284°
2026-04-20 14:31 56.06538 62.27994 30414 ft 392 kts 284°
2026-04-20 14:31 56.07419 62.23395 29872 ft 389 kts 284°
2026-04-20 14:31 56.08298 62.18774 29308 ft 385 kts 284°
2026-04-20 14:31 56.09152 62.14268 28809 ft 380 kts 284°
2026-04-20 14:32 56.09999 62.09862 28260 ft 378 kts 287°
2026-04-20 14:32 56.11165 62.05565 27699 ft 380 kts 296°
2026-04-20 14:32 56.12570 62.01583 27157 ft 378 kts 297°
2026-04-20 14:32 56.13980 61.97609 26624 ft 376 kts 297°
2026-04-20 14:33 56.15376 61.93664 26113 ft 373 kts 297°
2026-04-20 14:33 56.16759 61.89740 25594 ft 371 kts 297°
2026-04-20 14:33 56.18131 61.85828 25095 ft 369 kts 297°
2026-04-20 14:33 56.19494 61.81929 24608 ft 367 kts 297°
2026-04-20 14:34 56.20842 61.78055 24120 ft 365 kts 297°
2026-04-20 14:34 56.22181 61.74202 23663 ft 363 kts 297°
2026-04-20 14:34 56.23513 61.70363 23149 ft 360 kts 297°
2026-04-20 14:34 56.24832 61.66570 22688 ft 356 kts 297°
2026-04-20 14:35 56.26138 61.62826 22232 ft 352 kts 298°
2026-04-20 14:35 56.27429 61.59117 21788 ft 348 kts 298°
2026-04-20 14:35 56.28707 61.55431 21333 ft 345 kts 298°
2026-04-20 14:35 56.29973 61.51764 20895 ft 343 kts 297°
2026-04-20 14:36 56.31221 61.48135 20437 ft 341 kts 297°
2026-04-20 14:36 56.32488 61.44446 19970 ft 340 kts 298°
2026-04-20 14:36 56.33730 61.40831 19498 ft 339 kts 298°
2026-04-20 14:36 56.34970 61.37223 19038 ft 338 kts 298°
2026-04-20 14:37 56.36209 61.33614 18576 ft 338 kts 298°
2026-04-20 14:37 56.37444 61.30008 18084 ft 338 kts 298°
2026-04-20 14:37 56.38677 61.26396 17596 ft 337 kts 298°
2026-04-20 14:37 56.39902 61.22813 17137 ft 335 kts 298°
2026-04-20 14:38 56.41124 61.19230 16672 ft 334 kts 298°
2026-04-20 14:38 56.42332 61.15676 16227 ft 332 kts 298°
2026-04-20 14:38 56.43531 61.12141 15799 ft 330 kts 298°
2026-04-20 14:38 56.44732 61.08595 15351 ft 329 kts 299°
2026-04-20 14:39 56.45925 61.05075 14915 ft 328 kts 299°
2026-04-20 14:39 56.47111 61.01559 14477 ft 327 kts 297°
2026-04-20 14:39 56.48026 60.97837 14036 ft 323 kts 285°
2026-04-20 14:39 56.48485 60.93872 13358 ft 325 kts 273°
2026-04-20 14:40 56.48511 60.89762 12643 ft 330 kts 267°
2026-04-20 14:40 56.48480 60.85584 11928 ft 333 kts 267°
2026-04-20 14:40 56.48456 60.81369 11284 ft 335 kts 267°
2026-04-20 14:40 56.48437 60.77202 10784 ft 326 kts 267°
2026-04-20 14:41 56.48418 60.73141 10178 ft 315 kts 266°
2026-04-20 14:41 56.48400 60.69265 10056 ft 302 kts 266°
2026-04-20 14:41 56.48382 60.65536 9930 ft 290 kts 266°
2026-04-20 14:41 56.48362 60.61945 9700 ft 282 kts 266°
2026-04-20 14:42 56.48336 60.58420 9320 ft 280 kts 266°
2026-04-20 14:42 56.48310 60.54852 8882 ft 279 kts 266°
2026-04-20 14:42 56.48282 60.51348 8480 ft 277 kts 265°
2026-04-20 14:42 56.48259 60.47870 8071 ft 276 kts 268°
2026-04-20 14:43 56.48498 60.44419 7717 ft 277 kts 278°
2026-04-20 14:43 56.48879 60.40998 7380 ft 276 kts 277°
2026-04-20 14:43 56.49248 60.37621 7144 ft 269 kts 277°
2026-04-20 14:43 56.49603 60.34369 7005 ft 258 kts 277°
2026-04-20 14:44 56.49956 60.31253 6845 ft 249 kts 281°
2026-04-20 14:44 56.50613 60.28372 6659 ft 248 kts 296°
2026-04-20 14:44 56.51512 60.25687 6534 ft 249 kts 297°
2026-04-20 14:44 56.52408 60.23004 6413 ft 249 kts 297°
2026-04-20 14:45 56.53302 60.20317 6285 ft 249 kts 297°
2026-04-20 14:45 56.54193 60.17632 6172 ft 248 kts 297°
2026-04-20 14:45 56.55206 60.15095 6036 ft 250 kts 311°
2026-04-20 14:45 56.56526 60.13031 5959 ft 251 kts 319°
2026-04-20 14:46 56.57894 60.11039 5840 ft 253 kts 318°
2026-04-20 14:46 56.59258 60.09041 5635 ft 252 kts 318°
2026-04-20 14:46 56.60684 60.07053 5431 ft 274 kts 327°
2026-04-20 14:46 56.62493 60.05741 5221 ft 286 kts 351°
2026-04-20 14:47 56.64460 60.05915 5022 ft 284 kts 18°
2026-04-20 14:47 56.66177 60.07670 4816 ft 279 kts 47°
2026-04-20 14:47 56.67301 60.10490 4627 ft 274 kts 65°
2026-04-20 14:48 56.68780 60.16680 4202 ft 257 kts 75°
2026-04-20 14:48 56.69351 60.19683 3992 ft 247 kts 75°
2026-04-20 14:48 56.69895 60.22590 3774 ft 238 kts 75°
2026-04-20 14:48 56.70417 60.25383 3580 ft 229 kts 75°
2026-04-20 14:49 56.70919 60.28081 3377 ft 221 kts 75°
2026-04-20 14:49 56.71404 60.30684 3180 ft 213 kts 75°
2026-04-20 14:49 56.71869 60.33188 3040 ft 206 kts 75°
2026-04-20 14:49 56.72316 60.35629 2915 ft 202 kts 74°
2026-04-20 14:50 56.72757 60.38044 2775 ft 200 kts 73°
2026-04-20 14:50 56.73193 60.40424 2649 ft 198 kts 72°
2026-04-20 14:50 56.73628 60.42785 2523 ft 196 kts 72°
2026-04-20 14:50 56.74063 60.45140 2432 ft 196 kts 71°
2026-04-20 14:51 56.74440 60.47520 2399 ft 196 kts 82°
2026-04-20 14:51 56.74496 60.49999 2403 ft 196 kts 88°
2026-04-20 14:51 56.74495 60.52422 2399 ft 185 kts 88°
2026-04-20 14:51 56.74494 60.54713 2402 ft 178 kts 88°
2026-04-20 14:52 56.74494 60.56948 2406 ft 175 kts 88°
2026-04-20 14:52 56.74494 60.59142 2419 ft 168 kts 88°
2026-04-20 14:52 56.74493 60.61142 2416 ft 147 kts 88°
2026-04-20 14:52 56.74493 60.62349 2390 ft 138 kts 87°
2026-04-20 14:53 56.74493 60.64051 2363 ft 132 kts 87°
2026-04-20 14:53 56.74492 60.65696 2204 ft 129 kts 86°
2026-04-20 14:53 56.74492 60.67314 2019 ft 128 kts 86°
2026-04-20 14:53 56.74491 60.68936 1824 ft 127 kts 86°
2026-04-20 14:54 56.74490 60.70558 1625 ft 128 kts 86°
2026-04-20 14:54 56.74488 60.72174 1424 ft 127 kts 86°
2026-04-20 14:54 56.74486 60.73779 1236 ft 127 kts 86°
2026-04-20 14:54 56.74485 60.75379 1066 ft 126 kts 85°
2026-04-20 14:55 56.74484 60.76980 892 ft 127 kts 86°
2026-04-20 14:55 56.74474 60.78575 788 ft 121 kts 87°
2026-04-20 14:55 56.74481 60.79875 777 ft 79 kts 90°
2026-04-20 14:55 56.74478 60.80752 777 ft 58 kts 90°
2026-04-20 14:56 56.74479 60.81330 777 ft 40 kts 89°
2026-04-20 14:56 56.74477 60.81749 777 ft 20 kts 90°
2026-04-20 14:56 56.74477 60.82008 777 ft 21 kts 89°
2026-04-20 14:56 56.74483 60.82174 777 ft 8 kts 65°
2026-04-20 14:57 56.74542 60.82202 777 ft 10 kts 359°
2026-04-20 14:57 56.74623 60.82200 777 ft 12 kts 356°
2026-04-20 14:57 56.74661 60.82078 777 ft 12 kts 269°
2026-04-20 14:57 56.74660 60.81926 777 ft 14 kts 269°
2026-04-20 14:58 56.74660 60.81726 777 ft 16 kts 270°
2026-04-20 14:58 56.74659 60.81535 777 ft 16 kts 270°
2026-04-20 14:58 56.74659 60.81282 777 ft 22 kts 270°
2026-04-20 14:58 56.74660 60.81007 777 ft 22 kts 270°
2026-04-20 14:59 56.74661 60.80750 777 ft 15 kts 270°
2026-04-20 14:59 56.74679 60.80647 777 ft 4 kts 337°
2026-04-20 14:59 56.74734 60.80647 777 ft 10 kts
2026-04-20 14:59 56.74811 60.80649 777 ft 12 kts 359°
2026-04-20 15:00 56.74860 60.80607 777 ft 6 kts 313°
2026-04-20 15:00 56.74882 60.80589 777 ft 3 kts 351°
2026-04-20 15:00 56.74915 60.80587 777 ft 5 kts 359°
2026-04-20 15:00 56.74932 60.80587 777 ft 1 kts 360°
2026-04-20 15:01 56.74940 60.80587 777 ft 0 kts